Hugo, OK

12:23 AM CDT on August 20, 2017 (GMT -0500)
Stamper Municipal

Weather History for KHHW - February, 2013

Change the Weather History Date:

Saturday, February 16, 2013

  Actual Average Record
Temperature  
Mean Temperature 40 °F -  
Max Temperature 48 °F 56 °F 74 °F (2014)
Min Temperature 31 °F 35 °F 25 °F (2015)
Degree Days  
Heating Degree Days 26    
Moisture  
Dew Point 22 °F    
Average Humidity 56    
Maximum Humidity 96    
Minimum Humidity 24    
Precipitation  
Precipitation 0.00 in - - ()
Sea Level Pressure  
Sea Level Pressure 30.29 in    
Wind  
Wind Speed 7 mph (WNW)    
Max Wind Speed 14 mph    
Max Gust Speed 20 mph    
Visibility 10 miles    
Events Snow    
Averages and records for this station are not official NWS values.
T = Trace of Precipitation, MM = Missing Value Source: NWS Daily Summary

Daily Weather History Graph

Daily Weather History Graph

Search for Another Location

Airport or City:

Trip Planner

Search our weather history database for the weather conditions in past years. The results will help you decide how hot, cold, wet, or windy it might be!

Date:

Astronomy

Feb. 16, 2013 Rise Set
Actual Time 7:05 AM CST 6:07 PM CST
Civil Twilight 6:40 AM CST 6:32 PM CST
Nautical Twilight 6:10 AM CST 7:02 PM CST
Astronomical Twilight 5:41 AM CST 7:31 PM CST
Moon 10:39 AM CST (2/16) No Moon Set
Length of Visible Light 11h 52m
Length of Day
11h 01m
Waxing Crescent, 39% of the Moon is Illuminated
Feb 16
Waxing Crescent
Feb 17
First Quarter
Feb 25
Full
Mar 4
Last Quarter
Mar 11
New

Hourly Weather History & Observations

Time (CST) Temp. Windchill Dew Point Humidity Pressure Visibility Wind Dir Wind Speed Gust Speed Precip Events Conditions
12:15 AM 32.2 °F 27.7 °F 19.8 °F 60% 30.35 in 10.0 mi WNW 4.6 mph - N/A   Clear
12:35 AM 32.0 °F 26.4 °F 19.9 °F 61% 30.35 in 10.0 mi WNW 5.8 mph - N/A   Scattered Clouds
12:55 AM 32.4 °F 29.1 °F 19.9 °F 60% 30.35 in 10.0 mi West 3.5 mph - N/A   Scattered Clouds
1:15 AM 33.1 °F 26.9 °F 20.5 °F 60% 30.35 in 10.0 mi WNW 6.9 mph - N/A   Mostly Cloudy
1:35 AM 33.6 °F 28.4 °F 20.5 °F 59% 30.35 in 10.0 mi NW 5.8 mph - N/A   Overcast
1:55 AM 35.2 °F 28.8 °F 18.5 °F 51% 30.35 in 10.0 mi NW 8.1 mph - N/A   Overcast
2:15 AM 35.4 °F 27.8 °F 20.3 °F 54% 30.36 in 10.0 mi NW 10.4 mph - N/A   Overcast
2:35 AM 36.1 °F 27.7 °F 22.8 °F 58% 30.35 in 10.0 mi NNW 12.7 mph - N/A   Overcast
2:55 AM 35.4 °F 26.4 °F 27.1 °F 72% 30.38 in 3.0 mi NW 13.8 mph - N/A Snow Light Snow
3:15 AM 32.2 °F 23.2 °F 31.1 °F 96% 30.37 in 5.0 mi NW 11.5 mph - N/A Snow Light Snow
3:35 AM 32.4 °F 24.6 °F 31.1 °F 95% 30.35 in 10.0 mi NW 9.2 mph - N/A Snow Light Snow
3:55 AM 32.4 °F 25.3 °F 31.3 °F 96% 30.35 in 10.0 mi NW 8.1 mph - N/A   Overcast
4:15 AM 32.5 °F 27.1 °F 31.5 °F 96% 30.34 in 10.0 mi NW 5.8 mph - N/A   Overcast
4:35 AM 32.9 °F 27.5 °F 31.6 °F 95% 30.34 in 10.0 mi NW 5.8 mph - N/A   Overcast
4:55 AM 32.9 °F 26.7 °F 31.5 °F 94% 30.34 in 10.0 mi NW 6.9 mph - N/A   Overcast
5:15 AM 32.4 °F 26.0 °F 31.1 °F 95% 30.34 in 10.0 mi NNW 6.9 mph - N/A   Mostly Cloudy
5:35 AM 32.0 °F 26.4 °F 30.7 °F 95% 30.34 in 10.0 mi NW 5.8 mph - N/A   Scattered Clouds
5:55 AM 32.0 °F 24.8 °F 30.2 °F 93% 30.35 in 10.0 mi NW 8.1 mph - N/A   Scattered Clouds
6:15 AM 31.8 °F 25.4 °F 30.2 °F 94% 30.35 in 10.0 mi NW 6.9 mph - N/A   Scattered Clouds
6:35 AM 31.5 °F 24.2 °F 29.8 °F 94% 30.35 in 10.0 mi NW 8.1 mph - N/A   Clear
6:55 AM 31.3 °F 23.9 °F 29.3 °F 92% 30.35 in 10.0 mi WNW 8.1 mph - N/A   Clear
7:15 AM 31.1 °F 25.4 °F 29.3 °F 93% 30.35 in 10.0 mi WNW 5.8 mph - N/A   Clear
7:35 AM 31.5 °F 24.2 °F 29.8 °F 94% 30.37 in 10.0 mi West 8.1 mph - N/A   Clear
7:55 AM 32.0 °F 24.8 °F 30.2 °F 93% 30.38 in 10.0 mi NW 8.1 mph - N/A   Clear
8:15 AM 32.9 °F 26.7 °F 30.7 °F 92% 30.38 in 10.0 mi NNW 6.9 mph - N/A   Clear
8:35 AM 33.8 °F 27.0 °F 29.3 °F 84% 30.38 in 10.0 mi NNW 8.1 mph - N/A   Clear
8:55 AM 34.5 °F 26.7 °F 28.9 °F 80% 30.39 in 10.0 mi NNW 10.4 mph - N/A   Clear
9:15 AM 35.8 °F 28.8 °F 26.4 °F 69% 30.39 in 10.0 mi North 9.2 mph 16.1 mph N/A   Clear
9:35 AM 37.0 °F 28.5 °F 21.9 °F 54% 30.38 in 10.0 mi North 13.8 mph 19.6 mph N/A   Clear
12:15 PM 44.6 °F 40.7 °F 15.6 °F 31% 30.36 in 10.0 mi NW 6.9 mph - N/A   Clear
12:35 PM 44.4 °F 38.2 °F 13.6 °F 29% 30.35 in 10.0 mi WNW 12.7 mph - N/A   Clear
12:55 PM 45.1 °F 42.8 °F 13.1 °F 27% 30.33 in 10.0 mi NNW 4.6 mph 17.3 mph N/A   Clear
1:15 PM 46.0 °F 41.9 °F 12.7 °F 26% 30.32 in 10.0 mi NW 8.1 mph - N/A   Clear
1:35 PM 46.8 °F - 13.1 °F 26% 30.31 in 10.0 mi WNW 10.4 mph - N/A   Clear
1:55 PM 47.3 °F - 15.3 °F 28% 30.30 in 10.0 mi West 5.8 mph - N/A   Clear
2:15 PM 46.0 °F 44.8 °F 12.9 °F 26% 30.29 in 10.0 mi NW 3.5 mph - N/A   Clear
2:35 PM 47.5 °F - 14.2 °F 26% 30.28 in 10.0 mi NW 6.9 mph - N/A   Clear
2:55 PM 47.7 °F - 13.8 °F 26% 30.26 in 10.0 mi WNW 6.9 mph - N/A   Clear
3:15 PM 48.0 °F - 12.7 °F 24% 30.25 in 10.0 mi NW 10.4 mph - N/A   Clear
3:35 PM 47.8 °F - 12.6 °F 24% 30.25 in 10.0 mi West 6.9 mph - N/A   Clear
3:55 PM 48.2 °F - 14.4 °F 26% 30.25 in 10.0 mi WNW 9.2 mph - N/A   Clear
4:15 PM 48.4 °F - 14.4 °F 26% 30.25 in 10.0 mi West 4.6 mph - N/A   Clear
4:35 PM 48.2 °F - 13.8 °F 25% 30.24 in 10.0 mi WSW 3.5 mph - N/A   Clear
4:55 PM 47.8 °F - 14.2 °F 26% 30.23 in 10.0 mi West 4.6 mph - N/A   Clear
5:15 PM 47.7 °F - 15.4 °F 28% 30.23 in 10.0 mi WNW 5.8 mph - N/A   Clear
5:35 PM 46.8 °F - 14.9 °F 28% 30.22 in 10.0 mi Calm Calm - N/A   Clear
5:55 PM 45.1 °F - 16.3 °F 32% 30.21 in 10.0 mi Calm Calm - N/A   Clear
6:15 PM 44.6 °F 42.2 °F 15.8 °F 31% 30.21 in 10.0 mi SSE 4.6 mph - N/A   Clear
6:35 PM 43.9 °F 42.3 °F 16.3 °F 33% 30.20 in 10.0 mi SSE 3.5 mph - N/A   Clear
6:55 PM 42.6 °F 40.9 °F 18.3 °F 38% 30.20 in 10.0 mi SSE 3.5 mph - N/A   Clear
7:15 PM 41.7 °F 39.8 °F 19.4 °F 41% 30.20 in 10.0 mi South 3.5 mph - N/A   Clear
7:35 PM 40.6 °F 38.6 °F 19.8 °F 43% 30.20 in 10.0 mi SSE 3.5 mph - N/A   Clear
7:55 PM 40.6 °F 38.6 °F 18.3 °F 41% 30.20 in 10.0 mi SSE 3.5 mph - N/A   Clear
8:15 PM 39.7 °F 36.5 °F 19.9 °F 45% 30.20 in 10.0 mi South 4.6 mph - N/A   Clear
8:35 PM 38.3 °F 35.9 °F 21.2 °F 50% 30.19 in 10.0 mi SSE 3.5 mph - N/A   Clear
8:55 PM 38.1 °F 33.7 °F 20.8 °F 50% 30.19 in 10.0 mi SSE 5.8 mph - N/A   Clear
9:15 PM 38.7 °F 34.3 °F 19.8 °F 47% 30.19 in 10.0 mi SSE 5.8 mph - N/A   Clear
9:35 PM 37.6 °F 35.1 °F 20.8 °F 51% 30.19 in 10.0 mi South 3.5 mph - N/A   Clear
9:55 PM 36.7 °F 32.9 °F 21.2 °F 54% 30.19 in 10.0 mi South 4.6 mph - N/A   Clear
10:15 PM 37.0 °F 33.3 °F 21.6 °F 54% 30.19 in 10.0 mi South 4.6 mph - N/A   Clear
10:35 PM 37.2 °F 33.6 °F 21.4 °F 53% 30.18 in 10.0 mi South 4.6 mph - N/A   Clear
10:55 PM 37.0 °F 33.3 °F 21.7 °F 54% 30.18 in 10.0 mi SSE 4.6 mph - N/A   Clear
11:15 PM 36.7 °F 34.1 °F 22.3 °F 56% 30.17 in 10.0 mi SSE 3.5 mph - N/A   Clear
11:35 PM 37.2 °F 34.7 °F 21.2 °F 52% 30.17 in 10.0 mi SSE 3.5 mph - N/A   Clear
11:55 PM 36.7 °F - 21.7 °F 55% 30.17 in 10.0 mi Calm Calm - N/A   Clear